YAMAL 300K

Last updated on Sat Apr 13 2024 01:02:38 GMT+0100 (British Summer Time)

1 38978U 12061B 24103.56993904 .00000062 00000+0 00000+0 0 9996 2 38978 0.0165 263.6972 0000831 355.3747 330.2955 1.00271327 41656
UTC large
Height (km)
Speed (km/s)
/
Latitude / Longitude
Inclination (degrees)
Orbital Period (minutes)
Azimuth
Elevation
Range (km)
Doppler Factor

Next 0 passes for location: London (51.5072 / 0.1276)

Sorry there are no passes over London.